Weather Roundup
Issued by NWS

Home | Current Version | Previous Version | Graphics & Text | Print | Product List | Glossary Off
Versions: 1 2 3 4 5 6 7 8 9 10 11 12 13 14 15 16 17 18 19 20 21 22 23 24 25 26 27 28 29 30 31 32 33 34 35 36 37 38 39 40 41 42 43 44 45 46 47 48 49 50

000
NZUS93 KARX 260210
HRRWXR

CURRENT HOURLY OBSERVATIONS ACROSS
MUCH OF THE UPPER MISSISSIPPI VALLEY
NATIONAL WEATHER SERVICE LA CROSSE WI
900 PM CDT WED MAR 25 2015


...SOUTHEAST MINNESOTA...


CITY           SKY/WX    TMP DP  RH WIND       PRES   REMARKS
ROCHESTER      CLOUDY    33  25  72 W18       30.06R WCI  22
ROCHESTER/MAYO CLOUDY    34  26  74 W17G25    30.05S WCI  23
WINONA         CLOUDY    37  25  60 W15G23    30.05S WCI  28
AUSTIN         CLOUDY    34  25  69 NW18G29   30.08S WCI  23
ALBERT LEA     CLOUDY    34  27  75 NW13G22   30.10R WCI  25
DODGE CENTER   CLOUDY    34  27  75 NW16G22   30.06R WCI  23
PRESTON        CLOUDY    32  26  77 NW17G24   30.07S WCI  21
OWATONNA       CLOUDY    34  25  69 W17G23    30.08S WCI  23
FARIBAULT      CLOUDY    36  27  69 W14       30.08S WCI  27
$$

...ELSEWHERE IN MINNESOTA...


CITY           SKY/WX    TMP DP  RH WIND       PRES   REMARKS
MINNEAPOLIS    CLOUDY    36  24  62 W16G23    30.05R WCI  26
INTNL FALLS    CLOUDY    29  22  75 NW18G33   29.90R WCI  16
DULUTH         FLURRIES  32  25  75 W17G25    29.86R WCI  21
RED WING       FAIR      36  25  64 W9        30.03S WCI  29
REDWOOD FALLS  MOCLDY    35  27  72 W12       30.12R WCI  27
MANKATO        FAIR      34  23  64 W14       30.11R WCI  24
WORTHINGTON    FAIR      34  21  60 NW10      30.16R WCI  26
FAIRMONT       FAIR      36  23  60 NW13      30.12R WCI  27
$$

...SOUTHWEST WISCONSIN...


CITY           SKY/WX    TMP DP  RH WIND       PRES   REMARKS
LA CROSSE      CLOUDY    37  27  67 W15       30.04R WCI  28
PRAIRIE DU CHI CLOUDY    36  25  66 W14       30.06S WCI  27
BOSCOBEL       CLOUDY    37  25  61 W8G18     30.05S WCI  31
LONE ROCK      CLOUDY    37  26  64 W12       30.02S WCI  29
PLATTEVILLE    CLOUDY    35  29  78 W8        30.04R WCI  28
FORT MC COY    CLOUDY    36  26  66 W10G16    30.02S WCI  28
CAMP DOUGLAS   CLOUDY    36  30  80 W14G24    29.98R WCI  27
VIROQUA        CLOUDY    34  27  76 NW16      30.01F WCI  23
WIS DELLS      CLOUDY    36  26  66 W15G22    29.98S WCI  26
$$

...ELSEWHERE IN WISCONSIN...


CITY           SKY/WX    TMP DP  RH WIND       PRES   REMARKS
MILWAUKEE      FAIR      38  28  67 W12G20    29.97R WCI  30
MADISON        CLOUDY    37  26  64 W9G22     29.99R WCI  30
GREEN BAY      CLOUDY    39  28  64 W18G25    29.90S WCI  30
EAU CLAIRE     CLOUDY    36  24  62 W13G21    29.98R WCI  27
BLACK RVR FLS  CLOUDY    37  26  65 W12G17    29.99R WCI  29
MEDFORD        CLOUDY    34  26  71 W15G22    29.90R WCI  24
WAUSAU         CLOUDY    36  27  69 W18G28    29.88R WCI  26
WIS RAPIDS     CLOUDY    36  26  67 W12       29.95R WCI  28
MARSHFIELD     CLOUDY    36  27  69 W15G23    29.93R WCI  27
RICE LAKE      CLOUDY    35  25  66 W12       29.97R WCI  27
$$

...NORTHEAST IOWA...


CITY           SKY/WX    TMP DP  RH WIND       PRES   REMARKS
DECORAH        CLOUDY    34  27  75 NW14G21   30.05F WCI  24
MASON CITY     CLOUDY    35  27  72 NW12      30.12S WCI  27
CHARLES CITY   CLOUDY    36  28  75 NW15G23   30.10S WCI  26
OELWEIN        CLOUDY    36  28  75 NW18G25   30.09R WCI  25
$$

...ELSEWHERE IN IOWA...


CITY           SKY/WX    TMP DP  RH WIND       PRES   REMARKS
DES MOINES     MOCLDY    44  29  55 N13G21    30.13R
IOWA CITY      MOCLDY    41  31  67 NW10      30.10R
FORT DODGE     MOCLDY    37  27  65 NW8       30.13S WCI  31
$$

...NORTHERN ILLINOIS...


CITY           SKY/WX    TMP DP  RH WIND       PRES   REMARKS
CHICAGO-OHARE  CLOUDY    39  35  86 W8        30.01R WCI  33
CHICAGO-MIDWAY CLOUDY    41  35  79 SW9       30.03R
MOLINE         MOCLDY    42  32  67 NW8       30.07R
ROCKFORD       CLOUDY    38  30  73 NW10      30.04R WCI  31
PEORIA         CLOUDY    43  37  79 CALM      30.07R
$$

NOTE: "FAIR" INDICATES FEW OR NO CLOUDS BELOW 12,000 FEET WITH NO
SIGNIFICANT WEATHER AND/OR OBSTRUCTIONS TO VISIBILITY. WIND
SPEEDS ARE IN MILES-PER-HOUR.



USA.gov is the U.S. government's official web portal to all federal, state and local government web resources and services.